,,,PA_Meas_PMT16A,,PR_Meas_QMR101_102,,RH_Meas_QMH101,,SR_Meas_QMS101,,TA_Meas_QMH101,,GenWind,,GenWind,
date,time,status,PA,status,PR,status,RH,status,SR,status,TA,status,DirAvg,status,SpdAvg,
2012-01-31, 00:00:04,VALID,1001.34,VALID,0,VALID,87.3897,VALID,0,VALID,24.6751,VALID,142,VALID,0.983203,
2012-01-31, 00:01:04,VALID,1001.36,VALID,0,VALID,87.2829,VALID,0,VALID,24.6965,VALID,141,VALID,0.990625,
2012-01-31, 00:02:04,VALID,1001.36,VALID,0,VALID,87.4889,VALID,0,VALID,24.6556,VALID,146,VALID,1.4082,
2012-01-31, 00:03:04,VALID,1001.38,VALID,0,VALID,87.5423,VALID,0,VALID,24.6751,VALID,114,VALID,1.04023,
2012-01-31, 00:04:04,VALID,1001.33,VALID,0,VALID,87.0463,VALID,0,VALID,24.6342,VALID,111,VALID,0.39375,
2012-01-31, 00:05:04,VALID,1001.34,VALID,0,VALID,87.3363,VALID,0.104696,VALID,24.5757,VALID,91,VALID,0.679297,
2012-01-31, 00:06:04,VALID,1001.34,VALID,0,VALID,87.8398,VALID,0.104696,VALID,24.5562,VALID,76,VALID,1.39492,
2012-01-31, 00:07:04,VALID,1001.35,VALID,0,VALID,87.878,VALID,0.104696,VALID,24.5775,VALID,86,VALID,0.904688,
2012-01-31, 00:08:04,VALID,1001.32,VALID,0,VALID,87.9543,VALID,0.104696,VALID,24.5952,VALID,85,VALID,0.520312,
2012-01-31, 00:09:04,VALID,1001.3,VALID,0,VALID,87.9924,VALID,0.104696,VALID,24.6342,VALID,81,VALID,0.544141,
2012-01-31, 00:10:04,VALID,1001.33,VALID,0,VALID,87.9237,VALID,0.104696,VALID,24.6537,VALID,81,VALID,0.692187,
2012-01-31, 00:11:04,VALID,1001.34,VALID,0,VALID,87.7254,VALID,0.104696,VALID,24.6537,VALID,81,VALID,0.405859,
2012-01-31, 00:12:04,VALID,1001.34,VALID,0,VALID,87.7711,VALID,0.104696,VALID,24.6751,VALID,85,VALID,0.626562,
2012-01-31, 00:13:04,VALID,1001.36,VALID,0,VALID,87.588,VALID,0.104696,VALID,24.6537,VALID,91,VALID,0.708594,
2012-01-31, 00:14:04,VALID,1001.35,VALID,0,VALID,87.672,VALID,0.104696,VALID,24.6342,VALID,99,VALID,1.28633,
2012-01-31, 00:15:04,VALID,1001.32,VALID,0,VALID,87.6262,VALID,0,VALID,24.6751,VALID,101,VALID,0.829297,
2012-01-31, 00:16:04,VALID,1001.37,VALID,0,VALID,87.4126,VALID,0.104696,VALID,24.6733,VALID,103,VALID,0.845312,
2012-01-31, 00:17:04,VALID,1001.36,VALID,0,VALID,87.3134,VALID,0.104696,VALID,24.6733,VALID,105,VALID,0.721875,
2012-01-31, 00:18:04,VALID,1001.33,VALID,0,VALID,87.4507,VALID,0,VALID,24.6751,VALID,120,VALID,0.829297,
2012-01-31, 00:19:04,VALID,1001.33,VALID,0,VALID,87.6338,VALID,0,VALID,24.716,VALID,127,VALID,0.894922,
2012-01-31, 00:20:04,VALID,1001.33,VALID,0,VALID,87.466,VALID,0,VALID,24.7356,VALID,128,VALID,0.864062,
2012-01-31, 00:21:04,VALID,1001.31,VALID,0,VALID,87.4278,VALID,0,VALID,24.7337,VALID,128,VALID,0.747266,
2012-01-31, 00:22:04,VALID,1001.3,VALID,0,VALID,87.382,VALID,0,VALID,24.7746,VALID,128,VALID,0.660547,
2012-01-31, 00:23:04,VALID,1001.29,VALID,0,VALID,87.3057,VALID,0,VALID,24.7532,VALID,128,VALID,0.671484,
2012-01-31, 00:24:04,VALID,1001.3,VALID,0,VALID,87.3134,VALID,0,VALID,24.7532,VALID,137,VALID,0.932813,
2012-01-31, 00:25:04,VALID,1001.28,VALID,0,VALID,87.6109,VALID,0,VALID,24.7941,VALID,147,VALID,1.03594,
2012-01-31, 00:26:04,VALID,1001.27,VALID,0,VALID,87.4278,VALID,0,VALID,24.8332,VALID,149,VALID,0.95,
2012-01-31, 00:27:04,VALID,1001.24,VALID,0,VALID,87.2142,VALID,0,VALID,24.8527,VALID,154,VALID,1.23555,
2012-01-31, 00:28:04,VALID,1001.21,VALID,0,VALID,87.2829,VALID,0,VALID,24.8508,VALID,159,VALID,1.19414,
2012-01-31, 00:29:04,VALID,1001.21,VALID,0,VALID,87.0997,VALID,0,VALID,24.8703,VALID,164,VALID,1.1582,
2012-01-31, 00:30:04,VALID,1001.16,VALID,0,VALID,86.97,VALID,0,VALID,24.9112,VALID,160,VALID,1.22617,
2012-01-31, 00:31:04,VALID,1001.14,VALID,0,VALID,86.9624,VALID,0,VALID,24.9289,VALID,160,VALID,1.21758,
2012-01-31, 00:32:04,VALID,1001.11,VALID,0,VALID,86.8403,VALID,0,VALID,24.9289,VALID,160,VALID,1.13203,
2012-01-31, 00:33:04,VALID,1001.09,VALID,0,VALID,86.8251,VALID,0,VALID,24.9503,VALID,160,VALID,1.27617,
2012-01-31, 00:34:04,VALID,1001.07,VALID,0,VALID,86.7335,VALID,0,VALID,24.9679,VALID,153,VALID,1.21406,
2012-01-31, 00:35:04,VALID,1001.02,VALID,0,VALID,86.642,VALID,0,VALID,24.9893,VALID,150,VALID,1.45781,
2012-01-31, 00:36:04,VALID,1001.01,VALID,0,VALID,86.5733,VALID,0,VALID,24.9893,VALID,149,VALID,1.25234,
2012-01-31, 00:37:04,VALID,1000.98,VALID,0,VALID,86.4665,VALID,0,VALID,24.9893,VALID,136,VALID,1.03359,
2012-01-31, 00:38:04,VALID,1000.98,VALID,0,VALID,86.2071,VALID,0,VALID,24.9308,VALID,108,VALID,0.782812,
2012-01-31, 00:39:04,VALID,1000.93,VALID,0,VALID,86.5275,VALID,0,VALID,24.8527,VALID,127,VALID,1.21484,
2012-01-31, 00:40:04,VALID,1000.91,VALID,0,VALID,86.7488,VALID,0,VALID,24.7727,VALID,124,VALID,0.744922,
2012-01-31, 00:41:04,VALID,1000.87,VALID,0,VALID,87.1684,VALID,0,VALID,24.716,VALID,113,VALID,1.01289,
2012-01-31, 00:42:04,VALID,1000.87,VALID,0,VALID,87.6872,VALID,0,VALID,24.6751,VALID,117,VALID,1.26602,
2012-01-31, 00:43:04,VALID,1000.87,VALID,0,VALID,87.6109,VALID,0,VALID,24.7356,VALID,113,VALID,1.00781,
2012-01-31, 00:44:04,VALID,1000.89,VALID,0,VALID,87.4354,VALID,0,VALID,24.7142,VALID,100,VALID,0.927344,
2012-01-31, 00:45:04,VALID,1000.88,VALID,0,VALID,87.3973,VALID,0,VALID,24.6751,VALID,112,VALID,1.11094,
2012-01-31, 00:46:04,VALID,1000.82,VALID,0,VALID,87.5041,VALID,0,VALID,24.6166,VALID,124,VALID,0.900781,
2012-01-31, 00:47:04,VALID,1000.85,VALID,0,VALID,87.9848,VALID,0,VALID,24.558,VALID,112,VALID,1.09297,
2012-01-31, 00:48:04,VALID,1000.83,VALID,0,VALID,88.7401,VALID,0,VALID,24.519,VALID,116,VALID,1.33086,
2012-01-31, 00:49:04,VALID,1000.84,VALID,0,VALID,88.702,VALID,0,VALID,24.4995,VALID,130,VALID,1.11172,
2012-01-31, 00:50:04,VALID,1000.83,VALID,0,VALID,88.8088,VALID,0,VALID,24.4604,VALID,130,VALID,0.889844,
2012-01-31, 00:51:04,VALID,1000.82,VALID,0,VALID,88.9232,VALID,0,VALID,24.4428,VALID,130,VALID,0.705859,
2012-01-31, 00:52:05,VALID,1000.78,VALID,0,VALID,88.9537,VALID,0,VALID,24.4019,VALID,130,VALID,0.581641,
2012-01-31, 00:53:05,VALID,1000.8,VALID,0,VALID,89.0606,VALID,0,VALID,24.4037,VALID,130,VALID,0.653906,
2012-01-31, 00:54:05,VALID,1000.8,VALID,0,VALID,89.32,VALID,0,VALID,24.4233,VALID,140,VALID,0.808984,
2012-01-31, 00:55:05,VALID,1000.74,VALID,0,VALID,89.3657,VALID,0,VALID,24.4623,VALID,147,VALID,1.00625,
2012-01-31, 00:56:05,VALID,1000.72,VALID,0,VALID,89.2513,VALID,0,VALID,24.519,VALID,151,VALID,1.04922,
2012-01-31, 00:57:05,VALID,1000.72,VALID,0,VALID,88.8698,VALID,0,VALID,24.6184,VALID,150,VALID,0.998047,
2012-01-31, 00:58:05,VALID,1000.72,VALID,0,VALID,88.5036,VALID,0,VALID,24.677,VALID,150,VALID,0.780469,
2012-01-31, 00:59:05,VALID,1000.7,VALID,0,VALID,88.3357,VALID,0,VALID,24.716,VALID,150,VALID,0.688281,
2012-01-31, 01:00:05,VALID,1000.71,VALID,0,VALID,88.2518,VALID,0,VALID,24.7337,VALID,150,VALID,0.766797,
2012-01-31, 01:01:05,VALID,1000.67,VALID,0,VALID,88.1374,VALID,0,VALID,24.7922,VALID,150,VALID,0.742578,
2012-01-31, 01:02:05,VALID,1000.67,VALID,0,VALID,87.8627,VALID,0,VALID,24.8527,VALID,150,VALID,0.839453,
2012-01-31, 01:03:05,VALID,1000.66,VALID,0,VALID,87.7864,VALID,0,VALID,24.8703,VALID,150,VALID,0.819531,
2012-01-31, 01:04:05,VALID,1000.63,VALID,0,VALID,87.6796,VALID,0,VALID,24.9308,VALID,150,VALID,0.991797,
2012-01-31, 01:05:05,VALID,1000.62,VALID,0,VALID,87.5117,VALID,0,VALID,24.9484,VALID,150,VALID,1.10117,
2012-01-31, 01:06:05,VALID,1000.65,VALID,0,VALID,87.3592,VALID,0,VALID,25.0284,VALID,150,VALID,1.14023,
2012-01-31, 01:07:05,VALID,1000.66,VALID,0,VALID,87.2142,VALID,0,VALID,25.0655,VALID,154,VALID,1.17734,
2012-01-31, 01:08:05,VALID,1000.64,VALID,0,VALID,86.9014,VALID,0,VALID,25.1455,VALID,160,VALID,1.51445,
2012-01-31, 01:09:05,VALID,1000.64,VALID,0,VALID,86.5962,VALID,0,VALID,25.1631,VALID,155,VALID,1.6,
2012-01-31, 01:10:05,VALID,1000.64,VALID,0,VALID,86.291,VALID,0,VALID,25.1845,VALID,153,VALID,1.43555,
2012-01-31, 01:11:05,VALID,1000.66,VALID,0,VALID,86.2834,VALID,0,VALID,25.1455,VALID,164,VALID,1.85547,
2012-01-31, 01:12:05,VALID,1000.68,VALID,0,VALID,86.4817,VALID,0,VALID,25.126,VALID,158,VALID,2.05586,
2012-01-31, 01:13:05,VALID,1000.66,VALID,0,VALID,86.5733,VALID,0,VALID,25.126,VALID,155,VALID,2.06406,
2012-01-31, 01:14:05,VALID,1000.66,VALID,0,VALID,86.3902,VALID,0,VALID,25.1045,VALID,156,VALID,1.80508,
2012-01-31, 01:15:05,VALID,1000.59,VALID,0,VALID,86.5504,VALID,0,VALID,25.0674,VALID,159,VALID,1.85352,
2012-01-31, 01:16:05,VALID,1000.62,VALID,0,VALID,86.7717,VALID,0,VALID,25.0069,VALID,163,VALID,1.59883,
2012-01-31, 01:17:05,VALID,1000.58,VALID,0,VALID,87.0234,VALID,0,VALID,24.9874,VALID,161,VALID,1.90898,
2012-01-31, 01:18:05,VALID,1000.57,VALID,0,VALID,87.0921,VALID,0,VALID,24.9679,VALID,166,VALID,1.70391,
2012-01-31, 01:19:05,VALID,1000.57,VALID,0,VALID,87.0387,VALID,0,VALID,24.9874,VALID,161,VALID,1.7582,
2012-01-31, 01:20:05,VALID,1000.58,VALID,0,VALID,87.2066,VALID,0,VALID,24.9893,VALID,153,VALID,1.55977,
2012-01-31, 01:21:05,VALID,1000.58,VALID,0,VALID,87.1379,VALID,0,VALID,25.0284,VALID,142,VALID,0.991406,
2012-01-31, 01:22:05,VALID,1000.56,VALID,0,VALID,87.0006,VALID,0,VALID,25.0479,VALID,150,VALID,1.18633,
2012-01-31, 01:23:05,VALID,1000.55,VALID,0,VALID,86.909,VALID,0,VALID,25.0674,VALID,146,VALID,1.92148,
2012-01-31, 01:24:05,VALID,1000.57,VALID,0,VALID,86.6343,VALID,0.104696,VALID,25.1241,VALID,132,VALID,1.33945,
2012-01-31, 01:25:05,VALID,1000.55,VALID,0,VALID,86.3673,VALID,0,VALID,25.1631,VALID,154,VALID,1.14766,
2012-01-31, 01:26:05,VALID,1000.56,VALID,0,VALID,86.3444,VALID,0,VALID,25.165,VALID,149,VALID,0.820313,
2012-01-31, 01:27:05,VALID,1000.57,VALID,0,VALID,86.3902,VALID,0,VALID,25.1241,VALID,114,VALID,0.986328,
2012-01-31, 01:28:05,VALID,1000.56,VALID,0,VALID,86.4436,VALID,0,VALID,25.1064,VALID,128,VALID,1.13125,
2012-01-31, 01:29:05,VALID,1000.56,VALID,0,VALID,86.6649,VALID,0,VALID,25.0869,VALID,144,VALID,0.813672,
2012-01-31, 01:30:05,VALID,1000.58,VALID,0,VALID,86.5199,VALID,0,VALID,25.0674,VALID,130,VALID,0.648828,
2012-01-31, 01:31:05,VALID,1000.58,VALID,0,VALID,86.8709,VALID,0,VALID,25.0069,VALID,111,VALID,1.03711,
2012-01-31, 01:32:05,VALID,1000.58,VALID,0,VALID,87.0845,VALID,0,VALID,24.9679,VALID,121,VALID,0.960547,
2012-01-31, 01:33:05,VALID,1000.58,VALID,0,VALID,87.1379,VALID,0,VALID,24.9289,VALID,119,VALID,0.833594,
2012-01-31, 01:34:05,VALID,1000.54,VALID,0,VALID,87.2752,VALID,0,VALID,24.9289,VALID,119,VALID,0.936328,
2012-01-31, 01:35:05,VALID,1000.57,VALID,0,VALID,87.4736,VALID,0,VALID,24.9093,VALID,126,VALID,1.13477,
2012-01-31, 01:36:05,VALID,1000.59,VALID,0,VALID,87.4812,VALID,0,VALID,24.9112,VALID,137,VALID,1.07773,
2012-01-31, 01:37:05,VALID,1000.63,VALID,0,VALID,87.4049,VALID,0,VALID,24.8917,VALID,129,VALID,0.823438,
2012-01-31, 01:38:05,VALID,1000.6,VALID,0,VALID,87.5575,VALID,0,VALID,24.8722,VALID,128,VALID,0.839453,
2012-01-31, 01:39:05,VALID,1000.65,VALID,0,VALID,87.7788,VALID,0,VALID,24.8136,VALID,126,VALID,0.676562,
2012-01-31, 01:40:05,VALID,1000.62,VALID,0,VALID,87.9543,VALID,0,VALID,24.7922,VALID,126,VALID,0.762109,
2012-01-31, 01:41:05,VALID,1000.63,VALID,0,VALID,87.8551,VALID,0,VALID,24.8136,VALID,127,VALID,0.55,
2012-01-31, 01:42:05,VALID,1000.66,VALID,0,VALID,87.7711,VALID,0,VALID,24.8136,VALID,159,VALID,0.465625,
2012-01-31, 01:43:05,VALID,1000.68,VALID,0,VALID,87.672,VALID,0,VALID,24.7941,VALID,159,VALID,0,
2012-01-31, 01:44:05,VALID,1000.67,VALID,0,VALID,87.9237,VALID,0,VALID,24.7356,VALID,218,VALID,0.590234,
2012-01-31, 01:45:05,VALID,1000.67,VALID,0,VALID,88,VALID,0,VALID,24.677,VALID,316,VALID,0.929688,
2012-01-31, 01:46:05,VALID,1000.67,VALID,0,VALID,88.2747,VALID,0,VALID,24.5794,VALID,321,VALID,1.05977,
2012-01-31, 01:47:05,VALID,1000.68,VALID,0,VALID,88.5189,VALID,0,VALID,24.4995,VALID,321,VALID,0.708203,
2012-01-31, 01:48:05,VALID,1000.7,VALID,0,VALID,88.618,VALID,0,VALID,24.4623,VALID,316,VALID,0.716016,
2012-01-31, 01:49:05,VALID,1000.67,VALID,0,VALID,88.8927,VALID,0,VALID,24.4428,VALID,306,VALID,0.742578,
2012-01-31, 01:50:05,VALID,1000.68,VALID,0,VALID,89.0682,VALID,0,VALID,24.4428,VALID,306,VALID,0.712891,
2012-01-31, 01:51:05,VALID,1000.68,VALID,0,VALID,88.9995,VALID,0,VALID,24.4214,VALID,306,VALID,0.480078,
2012-01-31, 01:52:05,VALID,1000.67,VALID,0,VALID,88.7554,VALID,0,VALID,24.4019,VALID,307,VALID,0.408594,
2012-01-31, 01:53:05,VALID,1000.68,VALID,0,VALID,88.8011,VALID,0,VALID,24.3257,VALID,312,VALID,0.664453,
2012-01-31, 01:54:05,VALID,1000.66,VALID,0,VALID,89.0071,VALID,0,VALID,24.2263,VALID,312,VALID,0.394531,
2012-01-31, 01:55:05,VALID,1000.66,VALID,0,VALID,89.2284,VALID,0,VALID,24.1872,VALID,312,VALID,0.317187,
2012-01-31, 01:56:05,VALID,1000.62,VALID,0,VALID,89.5031,VALID,0,VALID,24.15,VALID,312,VALID,0.442187,
2012-01-31, 01:57:05,VALID,1000.62,VALID,0,VALID,89.7549,VALID,0,VALID,24.1287,VALID,312,VALID,0.429297,
2012-01-31, 01:58:05,VALID,1000.57,VALID,0,VALID,89.854,VALID,0,VALID,24.15,VALID,312,VALID,0.596875,
2012-01-31, 01:59:05,VALID,1000.57,VALID,0,VALID,89.854,VALID,0,VALID,24.1092,VALID,312,VALID,0.296875,
2012-01-31, 02:00:05,VALID,1000.54,VALID,0,VALID,89.9456,VALID,0,VALID,24.111,VALID,312,VALID,0.288281,
2012-01-31, 02:01:05,VALID,1000.53,VALID,0,VALID,90.0219,VALID,0,VALID,24.0915,VALID,274,VALID,0.611328,
2012-01-31, 02:02:05,VALID,1000.5,VALID,0,VALID,90.1592,VALID,0,VALID,24.0701,VALID,272,VALID,0.445703,
2012-01-31, 02:03:05,VALID,1000.48,VALID,0,VALID,90.1821,VALID,0,VALID,24.111,VALID,272,VALID,0.248828,
2012-01-31, 02:04:05,VALID,1000.49,VALID,0,VALID,90.1211,VALID,0,VALID,24.0701,VALID,272,VALID,0.522266,
2012-01-31, 02:05:05,VALID,1000.45,VALID,0,VALID,90.1745,VALID,0,VALID,24.0506,VALID,252,VALID,0.646484,
2012-01-31, 02:06:05,VALID,1000.43,VALID,0,VALID,90.2889,VALID,0,VALID,24.0915,VALID,245,VALID,0.744531,
2012-01-31, 02:07:05,VALID,1000.46,VALID,0,VALID,90.3042,VALID,0,VALID,24.111,VALID,245,VALID,0.825781,
2012-01-31, 02:08:05,VALID,1000.43,VALID,0,VALID,90.2508,VALID,0,VALID,24.1305,VALID,244,VALID,0.688672,
2012-01-31, 02:09:05,VALID,1000.41,VALID,0,VALID,90.144,VALID,0,VALID,24.1092,VALID,244,VALID,0.419531,
2012-01-31, 02:10:05,VALID,1000.41,VALID,0,VALID,89.9761,VALID,0,VALID,24.1305,VALID,244,VALID,0.189453,
2012-01-31, 02:11:05,VALID,1000.42,VALID,0,VALID,89.7014,VALID,0,VALID,24.111,VALID,244,VALID,0,
2012-01-31, 02:12:05,VALID,1000.39,VALID,0,VALID,89.7014,VALID,0,VALID,24.0525,VALID,244,VALID,0.310547,
2012-01-31, 02:13:05,VALID,1000.4,VALID,0,VALID,89.9303,VALID,0,VALID,24.0134,VALID,244,VALID,0.166406,
2012-01-31, 02:14:05,VALID,1000.43,VALID,0,VALID,89.9532,VALID,0,VALID,23.9531,VALID,244,VALID,0,
2012-01-31, 02:15:05,VALID,1000.44,VALID,0,VALID,89.8998,VALID,0,VALID,23.8945,VALID,244,VALID,0.13125,
2012-01-31, 02:16:05,VALID,1000.43,VALID,0,VALID,89.9074,VALID,0,VALID,23.8768,VALID,159,VALID,0.310547,
2012-01-31, 02:17:05,VALID,1000.41,VALID,0,VALID,89.7549,VALID,0,VALID,23.8378,VALID,159,VALID,0.632031,
2012-01-31, 02:18:05,VALID,1000.38,VALID,0,VALID,89.6328,VALID,0,VALID,23.7775,VALID,164,VALID,0.881641,
2012-01-31, 02:19:05,VALID,1000.41,VALID,0,VALID,89.587,VALID,0,VALID,23.7988,VALID,168,VALID,0.721875,
2012-01-31, 02:20:05,VALID,1000.37,VALID,0,VALID,89.5107,VALID,0,VALID,23.8183,VALID,168,VALID,0.817187,
2012-01-31, 02:21:05,VALID,1000.38,VALID,0,VALID,89.2666,VALID,0,VALID,23.8183,VALID,159,VALID,0.744141,
2012-01-31, 02:22:05,VALID,1000.34,VALID,0,VALID,88.969,VALID,0,VALID,23.7793,VALID,152,VALID,0.960547,
2012-01-31, 02:23:05,VALID,1000.36,VALID,0,VALID,88.9309,VALID,0,VALID,23.7402,VALID,152,VALID,1.07695,
2012-01-31, 02:24:05,VALID,1000.35,VALID,0,VALID,89.114,VALID,0,VALID,23.6817,VALID,155,VALID,1.03906,
2012-01-31, 02:25:05,VALID,1000.33,VALID,0,VALID,89.2818,VALID,0,VALID,23.6409,VALID,164,VALID,0.981641,
2012-01-31, 02:26:05,VALID,1000.3,VALID,0,VALID,89.4039,VALID,0,VALID,23.6214,VALID,164,VALID,0.713281,
2012-01-31, 02:27:05,VALID,1000.25,VALID,0,VALID,89.381,VALID,0,VALID,23.6019,VALID,164,VALID,0.771875,
2012-01-31, 02:28:05,VALID,1000.26,VALID,0,VALID,89.2818,VALID,0,VALID,23.5841,VALID,164,VALID,0.467187,
2012-01-31, 02:29:05,VALID,1000.26,VALID,0,VALID,89.2971,VALID,0,VALID,23.5451,VALID,164,VALID,0.00429688,
2012-01-31, 02:30:05,VALID,1000.25,VALID,0,VALID,89.8769,VALID,0,VALID,23.5256,VALID,164,VALID,0.605078,
2012-01-31, 02:31:05,VALID,1000.24,VALID,0,VALID,90.0143,VALID,0,VALID,23.4866,VALID,319,VALID,0.8375,
2012-01-31, 02:32:05,VALID,1000.24,VALID,0,VALID,90.5636,VALID,0,VALID,23.4458,VALID,325,VALID,0.752344,
2012-01-31, 02:33:05,VALID,1000.26,VALID,0,VALID,90.9603,VALID,0,VALID,23.4458,VALID,325,VALID,0.799609,
2012-01-31, 02:34:05,VALID,1000.27,VALID,0,VALID,90.9603,VALID,0,VALID,23.4263,VALID,325,VALID,0.685156,
2012-01-31, 02:35:05,VALID,1000.25,VALID,0,VALID,90.8917,VALID,0,VALID,23.389,VALID,325,VALID,0.325391,
2012-01-31, 02:36:05,VALID,1000.23,VALID,0,VALID,91.0824,VALID,0,VALID,23.35,VALID,325,VALID,0.360938,
2012-01-31, 02:37:05,VALID,1000.25,VALID,0,VALID,91.2426,VALID,0,VALID,23.35,VALID,311,VALID,0.472266,
2012-01-31, 02:38:05,VALID,1000.22,VALID,0,VALID,91.3494,VALID,0,VALID,23.3305,VALID,240,VALID,0.945313,
2012-01-31, 02:39:05,VALID,1000.26,VALID,0,VALID,91.4257,VALID,0,VALID,23.3287,VALID,236,VALID,1.11641,
2012-01-31, 02:40:05,VALID,1000.26,VALID,0,VALID,91.38,VALID,0,VALID,23.35,VALID,229,VALID,0.623438,
2012-01-31, 02:41:05,VALID,1000.3,VALID,0,VALID,91.235,VALID,0,VALID,23.3287,VALID,229,VALID,0.229687,
2012-01-31, 02:42:05,VALID,1000.29,VALID,0,VALID,91.1129,VALID,0,VALID,23.3092,VALID,289,VALID,0.898828,
2012-01-31, 02:43:05,VALID,1000.26,VALID,0,VALID,91.0748,VALID,0,VALID,23.2897,VALID,274,VALID,0.663672,
2012-01-31, 02:44:05,VALID,1000.29,VALID,0,VALID,91.0214,VALID,0.104696,VALID,23.3092,VALID,274,VALID,0.7875,
2012-01-31, 02:45:05,VALID,1000.27,VALID,0,VALID,90.9374,VALID,0,VALID,23.2897,VALID,274,VALID,0.939062,
2012-01-31, 02:46:05,VALID,1000.3,VALID,0,VALID,90.7085,VALID,0,VALID,23.2897,VALID,270,VALID,0.795703,
2012-01-31, 02:47:05,VALID,1000.29,VALID,0,VALID,90.617,VALID,0,VALID,23.311,VALID,270,VALID,0.547656,
2012-01-31, 02:48:05,VALID,1000.3,VALID,0,VALID,90.6857,VALID,0,VALID,23.2915,VALID,289,VALID,0.823047,
2012-01-31, 02:49:05,VALID,1000.29,VALID,0,VALID,90.7849,VALID,0,VALID,23.2719,VALID,293,VALID,0.669922,
2012-01-31, 02:50:05,VALID,1000.33,VALID,0,VALID,90.8993,VALID,0,VALID,23.2312,VALID,271,VALID,0.795313,
2012-01-31, 02:51:05,VALID,1000.29,VALID,0,VALID,90.968,VALID,0,VALID,23.2329,VALID,271,VALID,0.55,
2012-01-31, 02:52:05,VALID,1000.33,VALID,0,VALID,90.9832,VALID,0,VALID,23.1939,VALID,273,VALID,0.484375,
2012-01-31, 02:53:05,VALID,1000.31,VALID,0,VALID,91.0061,VALID,0,VALID,23.1744,VALID,299,VALID,0.474219,
2012-01-31, 02:54:05,VALID,1000.33,VALID,0,VALID,91.029,VALID,0,VALID,23.1549,VALID,275,VALID,0.755078,
2012-01-31, 02:55:05,VALID,1000.32,VALID,0,VALID,91.0977,VALID,0,VALID,23.1141,VALID,264,VALID,1.06562,
2012-01-31, 02:56:05,VALID,1000.32,VALID,0,VALID,91.1511,VALID,0,VALID,23.1141,VALID,247,VALID,1.13398,
2012-01-31, 02:57:05,VALID,1000.34,VALID,0,VALID,91.1206,VALID,0,VALID,23.1549,VALID,242,VALID,0.856641,
2012-01-31, 02:58:05,VALID,1000.33,VALID,0,VALID,91.0748,VALID,0,VALID,23.1549,VALID,253,VALID,0.0761719,
2012-01-31, 02:59:05,VALID,1000.33,VALID,0,VALID,90.9451,VALID,0,VALID,23.1354,VALID,253,VALID,0.00078125,
2012-01-31, 03:00:05,VALID,1000.34,VALID,0,VALID,90.9374,VALID,0,VALID,23.1141,VALID,254,VALID,0.61875,
2012-01-31, 03:01:05,VALID,1000.31,VALID,0,VALID,91.0519,VALID,0,VALID,23.1159,VALID,272,VALID,0.8,
2012-01-31, 03:02:05,VALID,1000.31,VALID,0,VALID,91.09,VALID,0,VALID,23.0946,VALID,293,VALID,1.09219,
2012-01-31, 03:03:05,VALID,1000.32,VALID,0,VALID,91.174,VALID,0,VALID,23.0964,VALID,300,VALID,1.06836,
2012-01-31, 03:04:05,VALID,1000.35,VALID,0,VALID,91.1434,VALID,0,VALID,23.0573,VALID,298,VALID,0.664063,
2012-01-31, 03:05:05,VALID,1000.34,VALID,0,VALID,91.0671,VALID,0,VALID,23.0769,VALID,305,VALID,1.20977,
2012-01-31, 03:06:05,VALID,1000.36,VALID,0,VALID,91.09,VALID,0,VALID,23.0769,VALID,296,VALID,1.23984,
2012-01-31, 03:07:05,VALID,1000.37,VALID,0,VALID,91.1053,VALID,0,VALID,23.0769,VALID,310,VALID,1.55234,
2012-01-31, 03:08:05,VALID,1000.43,VALID,0,VALID,91.0977,VALID,0,VALID,23.0556,VALID,324,VALID,0.901563,
2012-01-31, 03:09:05,VALID,1000.46,VALID,0,VALID,91.0824,VALID,0,VALID,23.0769,VALID,327,VALID,0.965234,
2012-01-31, 03:10:05,VALID,1000.45,VALID,0,VALID,91.0671,VALID,0.104696,VALID,23.0556,VALID,327,VALID,0.884766,
2012-01-31, 03:11:05,VALID,1000.46,VALID,0,VALID,91.0137,VALID,0,VALID,23.0556,VALID,317,VALID,0.828906,
2012-01-31, 03:12:05,VALID,1000.46,VALID,0,VALID,90.9756,VALID,0,VALID,23.0751,VALID,317,VALID,0.882422,
2012-01-31, 03:13:05,VALID,1000.48,VALID,0,VALID,90.9985,VALID,0,VALID,23.0769,VALID,317,VALID,0.344922,
2012-01-31, 03:14:05,VALID,1000.48,VALID,0,VALID,90.968,VALID,0,VALID,23.0361,VALID,106,VALID,1.28008,
2012-01-31, 03:15:05,VALID,1000.44,VALID,0,VALID,91.029,VALID,0,VALID,23.0573,VALID,106,VALID,0.199609,
2012-01-31, 03:16:05,VALID,1000.43,VALID,0,VALID,91.029,VALID,0,VALID,23.0378,VALID,106,VALID,0.227344,
2012-01-31, 03:17:05,VALID,1000.4,VALID,0,VALID,91.1129,VALID,0,VALID,23.0166,VALID,137,VALID,0.960156,
2012-01-31, 03:18:05,VALID,1000.39,VALID,0,VALID,91.1053,VALID,0.104696,VALID,23.0573,VALID,136,VALID,0.514453,
2012-01-31, 03:19:05,VALID,1000.37,VALID,0,VALID,91.1206,VALID,0,VALID,23.0769,VALID,137,VALID,0.43125,
2012-01-31, 03:20:05,VALID,1000.36,VALID,0,VALID,91.2045,VALID,0,VALID,23.0751,VALID,167,VALID,0.718359,
2012-01-31, 03:21:05,VALID,1000.33,VALID,0,VALID,91.2655,VALID,0,VALID,23.1141,VALID,160,VALID,1.00352,
2012-01-31, 03:22:05,VALID,1000.35,VALID,0,VALID,91.3037,VALID,0,VALID,23.1549,VALID,146,VALID,1.16523,
2012-01-31, 03:23:05,VALID,1000.34,VALID,0,VALID,91.7843,VALID,0,VALID,23.2719,VALID,142,VALID,0.958594,
2012-01-31, 03:24:05,VALID,1000.33,VALID,0,VALID,91.3952,VALID,0,VALID,23.35,VALID,155,VALID,1.20938,
2012-01-31, 03:25:05,VALID,1000.34,VALID,0,VALID,91.1358,VALID,0,VALID,23.3695,VALID,167,VALID,1.21445,
2012-01-31, 03:26:05,VALID,1000.29,VALID,0,VALID,91.0595,VALID,0,VALID,23.4085,VALID,143,VALID,0.882031,
2012-01-31, 03:27:05,VALID,1000.32,VALID,0,VALID,91.0519,VALID,0,VALID,23.4475,VALID,163,VALID,0.782812,
2012-01-31, 03:28:05,VALID,1000.37,VALID,0,VALID,91.1434,VALID,0,VALID,23.4848,VALID,173,VALID,1.22773,
2012-01-31, 03:29:05,VALID,1000.36,VALID,0,VALID,91.1587,VALID,0,VALID,23.5646,VALID,168,VALID,1.41836,
2012-01-31, 03:30:05,VALID,1000.39,VALID,0,VALID,90.7772,VALID,0,VALID,23.5841,VALID,170,VALID,1.44727,
2012-01-31, 03:31:05,VALID,1000.4,VALID,0,VALID,90.6094,VALID,0,VALID,23.5628,VALID,171,VALID,0.95625,
2012-01-31, 03:32:05,VALID,1000.43,VALID,0,VALID,90.5483,VALID,0,VALID,23.6036,VALID,174,VALID,1.4457,
2012-01-31, 03:33:05,VALID,1000.42,VALID,0,VALID,90.4491,VALID,0,VALID,23.6036,VALID,180,VALID,1.31719,
2012-01-31, 03:34:05,VALID,1000.44,VALID,0,VALID,90.6094,VALID,0,VALID,23.6036,VALID,177,VALID,1.24414,
2012-01-31, 03:35:05,VALID,1000.43,VALID,0,VALID,90.678,VALID,0,VALID,23.6232,VALID,176,VALID,1.81914,
2012-01-31, 03:36:05,VALID,1000.42,VALID,0,VALID,90.6704,VALID,0,VALID,23.6427,VALID,174,VALID,1.99375,
2012-01-31, 03:37:04,VALID,1000.42,VALID,0,VALID,90.8001,VALID,0,VALID,23.6427,VALID,171,VALID,1.68516,
2012-01-31, 03:38:04,VALID,1000.42,VALID,0,VALID,91.0443,VALID,0,VALID,23.6622,VALID,166,VALID,1.74141,
2012-01-31, 03:39:04,VALID,1000.43,VALID,0,VALID,91.3418,VALID,0,VALID,23.6604,VALID,159,VALID,1.67031,
2012-01-31, 03:40:04,VALID,1000.43,VALID,0,VALID,91.4181,VALID,0,VALID,23.7207,VALID,153,VALID,2.04883,
2012-01-31, 03:41:04,VALID,1000.45,VALID,0,VALID,91.6012,VALID,0,VALID,23.7189,VALID,151,VALID,2.10195,
2012-01-31, 03:42:04,VALID,1000.46,VALID,0,VALID,91.792,VALID,0,VALID,23.7793,VALID,151,VALID,2.48477,
2012-01-31, 03:43:04,VALID,1000.48,VALID,0,VALID,92.0437,VALID,0,VALID,23.8378,VALID,149,VALID,2.02852,
2012-01-31, 03:44:04,VALID,1000.48,VALID,0,VALID,92.2345,VALID,0.104696,VALID,23.875,VALID,146,VALID,2.01211,